Terug naar catalogus

ONEWEB-0695

ActiefCommunicatiePO
NORAD 61602·PAYLOAD·🇬🇧 United Kingdom

Gelanceerd Oct 20, 2024 vanaf Vandenberg Space Force Base

Loading…

Volgende Passages (komende 24 uur)

TLE

VersSource: CelesTrak SupGP

Epoch: Sep 14, 2026, 22:32 UTC

1 61602C 24188J   26257.93906667 -.00001734  00000+0 -48989-2 0  2579
2 61602  87.8958   3.2296 0001284 107.4184 354.5345 13.11414618    14

Volg ONEWEB-0695 in realtime met AllMySat

Download on the App Store